Location: Poughquag
(41.6090°N, 73.6820°W)
Time: 08:07:51
(UTC-05:00)

DIWATA 2B (PO-101) - Pass Details

Date: 22 November 2025
Orbit: 563 x 574 km, 98.1° (Epoch: 07 December)

Event Time Altitude Azimuth Distance (km) Brightness Sun altitude
Exits shadow 18:43:00 16° 349° (N) 1,495 ? -24.7°
Maximum altitude 18:45:43 37° 289° (WNW) 890 ? -25.2°
Drops below altitude 10° 18:49:25 10° 222° (SW) 1,855 ? -25.9°
Sets 18:51:39 0° 214° (SSW) 2,748 ? -26.3°
